[[[{"header":{"parameterUnit":"kt","parameterCategory":2,"dx":1,"dy":1,"la1":30.253999710083008,"la2":30.299108505249023,"lo1":-89.0895004272461,"lo2":-89.04439544677734,"nx":28,"ny":28,"refTime":"2022-10-16T21:00:00:Z","depth":"0","parameterNumber":2,"parameterNumberName":"U-component_of_CURRENTS"},"data":[-0.37,-0.362,-0.3641,-0.365,-0.3736,-0.3722,-0.3751,-0.3579,-0.3372,-0.28,-0.2387,-0.2056,-0.2289,-0.2602,-0.2451,-0.2323,-0.2383,-0.2238,-0.2529,-0.2684,-0.2765,-0.2842,-0.2577,-0.2087,-0.2087,-0.2017,-0.2018,-0.2018,-0.3803,-0.38,-0.3867,-0.3937,-0.4022,-0.4166,-0.4351,-0.4282,-0.4239,-0.4094,-0.3921,-0.348,-0.3108,-0.3039,-0.2819,-0.2663,-0.2654,-0.2699,-0.2746,-0.2727,-0.2969,-0.2678,-0.22,-0.22,-0.22,-0.22,-0.22,-0.22,-0.4,-0.399,-0.4036,-0.4108,-0.4252,-0.4382,-0.4419,-0.4619,-0.4754,-0.4791,-0.4965,-0.4605,-0.4391,-0.3937,-0.3874,-0.3597,-0.3841,-0.342,-0.3584,-0.3721,-0.3388,-0.3588,-0.3428,-0.3434,-0.3439,-0.3443,-0.3447,0,-0.4111,-0.4132,-0.4187,-0.428,-0.4384,-0.4532,-0.4723,-0.4875,-0.5201,-0.5342,-0.5446,-0.5369,-0.5239,-0.4776,-0.4624,-0.4496,-0.4591,-0.4574,-0.4609,-0.3772,-0.3764,-0.3634,-0.4035,-0.404,-0.4049,-0.4056,-0.4061,-0.4065,-0.4175,-0.4211,-0.4345,-0.4391,-0.4448,-0.4599,-0.472,-0.4991,-0.5169,-0.5536,-0.5632,-0.5734,-0.5601,-0.5563,-0.5305,-0.516,-0.5171,-0.4804,-0.4476,-0.44,-0.4476,-0.4555,-0.4453,-0.4164,-0.4151,-0.4141,-0.4133,0,-0.4173,-0.4265,-0.4367,-0.4525,-0.4575,-0.4651,-0.49,-0.5051,-0.5271,-0.5502,-0.5556,-0.5725,-0.5696,-0.5685,-0.5688,-0.5519,-0.5337,-0.5379,-0.4961,-0.4865,-0.4437,-0.4518,-0.4682,-0.4566,-0.5198,-0.5192,-0.5188,0,-0.4197,-0.4282,-0.4399,-0.4456,-0.4583,-0.4718,-0.4899,-0.5007,-0.5246,-0.5402,-0.5469,-0.5578,-0.5517,-0.5573,-0.5456,-0.5312,-0.5523,-0.507,-0.504,-0.4663,-0.4603,-0.4503,-0.4556,-0.5369,-0.5366,-0.5363,-0.5361,0,-0.4128,-0.4305,-0.4406,-0.4462,-0.4636,-0.4713,-0.4801,-0.4982,-0.51,-0.528,-0.5387,-0.543,-0.5421,-0.5413,-0.5246,-0.5156,-0.536,-0.5235,-0.4989,-0.4973,-0.4586,-0.452,-0.4674,-0.5357,-0.5356,-0.5355,-0.5354,0,-0.4128,-0.4207,-0.436,-0.4508,-0.4549,-0.4646,-0.4819,-0.4922,-0.5079,-0.5117,-0.5166,-0.5115,-0.5146,-0.4943,-0.5,-0.4897,-0.4858,-0.4838,-0.485,-0.4483,-0.4342,-0.4262,-0.439,-0.4333,-0.4954,-0.4949,-0.4946,0,-0.4014,-0.4168,-0.4225,-0.4379,-0.4454,-0.4496,-0.4615,-0.4701,-0.4746,-0.4857,-0.4792,-0.4816,-0.46,-0.4573,-0.4595,-0.4524,-0.4631,-0.4455,-0.4587,-0.4593,-0.432,-0.4512,-0.4082,-0.4348,-0.4891,-0.4897,-0.4901,0,-0.3919,-0.4039,-0.4055,-0.41,-0.4204,-0.4268,-0.4387,-0.448,-0.4564,-0.4545,-0.4661,-0.4543,-0.4464,-0.4415,-0.4304,-0.4356,-0.4543,-0.423,-0.4228,-0.4407,-0.4787,-0.4478,-0.4486,-0.4473,-0.4478,-0.4482,-0.4857,0,-0.3852,-0.3919,-0.3971,-0.4047,-0.4112,-0.4188,-0.4224,-0.4268,-0.4231,-0.4244,-0.4275,-0.4167,-0.4125,-0.4095,-0.3978,-0.4088,-0.4083,-0.3976,-0.391,-0.406,-0.4203,-0.4238,-0.3753,-0.3749,-0.3745,-0.3742,0,0,-0.3707,-0.379,-0.3784,-0.3867,-0.3912,-0.3874,-0.3969,-0.3994,-0.4005,-0.4026,-0.3939,-0.3889,-0.3779,-0.3835,-0.3838,-0.3789,-0.3842,-0.3767,-0.3961,-0.3986,-0.4009,-0.4154,-0.4192,-0.3735,-0.3734,-0.3732,-0.3731,0,-0.3673,-0.3684,-0.3747,-0.3791,-0.3826,-0.3836,-0.3857,-0.388,-0.3875,-0.3907,-0.3797,-0.3762,-0.3693,-0.3661,-0.3624,-0.3736,-0.3691,-0.3695,-0.3851,-0.3926,-0.3956,-0.3983,-0.4132,-0.4169,-0.3722,-0.3722,-0.3723,0,-0.3571,-0.3592,-0.3617,-0.3685,-0.3691,-0.3768,-0.3684,-0.3739,-0.3795,-0.3637,-0.3671,-0.3584,-0.3486,-0.3504,-0.3492,-0.3451,-0.3591,-0.3476,-0.3493,-0.3499,-0.357,-0.3604,-0.3634,-0.3252,-0.3251,-0.325,0,0,-0.3535,-0.3579,-0.3609,-0.3677,-0.3692,-0.3682,-0.3701,-0.3689,-0.3674,-0.3659,-0.3593,-0.3516,-0.3469,-0.3447,-0.339,-0.3415,-0.3427,-0.3428,-0.345,-0.3469,-0.3485,-0.356,-0.3592,-0.3248,-0.3248,-0.3248,0,0,-0.3517,-0.3546,-0.3516,-0.3604,-0.3635,-0.3652,-0.3681,-0.3654,-0.363,-0.3599,-0.3487,-0.3463,-0.3449,-0.338,-0.3361,-0.3368,-0.3264,-0.3267,-0.3446,-0.3472,-0.3493,-0.3528,-0.3234,0,0,0,0,0,-0.3469,-0.3548,-0.352,-0.3534,-0.3591,-0.3667,-0.3672,-0.3638,-0.3575,-0.3614,-0.3536,-0.3444,-0.3351,-0.3333,-0.3316,-0.3364,-0.3216,-0.3221,-0.3227,-0.3459,-0.3487,-0.3511,0,0,0,0,0,0,-0.3475,-0.3493,-0.3518,-0.3541,-0.3553,-0.3664,-0.357,-0.3562,-0.3571,-0.356,-0.3465,-0.3441,-0.3366,-0.3334,-0.332,-0.3368,-0.3238,-0.3218,-0.3223,-0.3227,-0.3468,-0.3491,-0.3511,0,0,0,0,0,-0.3479,-0.3494,-0.3596,-0.3539,-0.3549,-0.3528,-0.3566,-0.3559,-0.3559,-0.3468,-0.3446,-0.3531,-0.3371,-0.3351,-0.3325,-0.3378,-0.3247,-0.3242,-0.3221,-0.3225,-0.3228,-0.348,0,0,0,0,0,0,-0.3482,-0.348,-0.3597,-0.3598,-0.3503,-0.352,-0.3523,-0.3556,-0.3461,-0.3446,-0.3526,-0.3518,-0.3375,-0.3358,-0.3343,-0.3388,-0.3254,-0.3249,-0.3246,-0.3224,-0.3227,-0.323,0,0,0,0,0,0,-0.3472,-0.3482,-0.3597,-0.3555,-0.3551,-0.3514,-0.3516,-0.348,-0.3456,-0.3522,-0.3515,-0.3523,-0.3353,-0.3364,-0.3352,-0.33,-0.326,-0.3255,-0.3252,-0.325,-0.3226,-0.3229,0,0,0,0,0,0,-0.3475,-0.3484,-0.3554,-0.3551,-0.3547,-0.3558,-0.3473,-0.3504,-0.3515,-0.3523,-0.3505,-0.35,-0.3357,-0.3346,-0.3359,-0.3313,-0.3303,-0.326,-0.3256,-0.3254,-0.3253,0,0,0,0,0,0,0,-0.3478,-0.3434,-0.3592,-0.3548,-0.3544,-0.3612,-0.3612,-0.3612,-0.3514,-0.351,-0.3506,-0.3502,-0.3286,-0.3281,-0.3276,-0.3323,0,0,-0.326,-0.3258,0,0,0,0,0,0,0,0,-0.343,-0.3433,-0.3592,-0.3592,-0.3593,-0.3612,-0.3612,-0.3612,-0.3513,-0.351,-0.3507,-0.3504,-0.3284,-0.328,-0.3276,0,0,0,0,0,0,0,0,0,0,0,0,0,0,0,-0.3592,-0.3592,0,-0.3612,-0.3612,-0.3612,-0.3513,-0.351,-0.3508,-0.3505,-0.3283,-0.328,-0.3277,0,0,0,0,0,0,0,0,0,0,0,0,0,0,0,0,0,0,0,0,0,0,0,0,0,0,0,0,0,0,0,0,0,0,0,0,0,0,0,0,0,0,0,0,0,0,0,0,0,0,0,0,0,0,0,0,0,0,0,0,0,0,0,0,0,0,0,0,0]}],[{"header":{"parameterUnit":"kt","parameterCategory":2,"dx":1,"dy":1,"la1":30.253999710083008,"la2":30.299108505249023,"lo1":-89.0895004272461,"lo2":-89.04439544677734,"nx":28,"ny":28,"refTime":"2022-10-16T21:00:00:Z","depth":"0","parameterNumber":3,"parameterNumberName":"V-component_of_CURRENTS"},"data":[-0.2203,-0.2488,-0.2653,-0.3024,-0.3177,-0.3233,-0.3169,-0.2742,-0.2117,-0.0711,0.0541,0.1413,0.2239,0.3028,0.3665,0.3704,0.406,0.3952,0.4156,0.372,0.3663,0.3608,0.3636,0.4163,0.4164,0.4854,0.4861,0.4866,-0.2117,-0.2309,-0.2575,-0.2848,-0.3041,-0.3061,-0.3075,-0.2913,-0.2576,-0.1768,-0.1137,0.0274,0.1041,0.1824,0.2607,0.2937,0.3033,0.3089,0.3233,0.3342,0.2628,0.2621,0.294,0.294,0.294,0.294,0.2939,0.2939,-0.199,-0.2144,-0.2327,-0.2585,-0.2757,-0.287,-0.2894,-0.2798,-0.2649,-0.2079,-0.1792,-0.0827,-0.0063,0.1046,0.1419,0.213,0.2072,0.2365,0.2483,0.2512,0.2673,0.1744,0.2021,0.202,0.2019,0.2019,0.2018,0,-0.1881,-0.1927,-0.2059,-0.2322,-0.2471,-0.2591,-0.2659,-0.2677,-0.2467,-0.2266,-0.1827,-0.1416,-0.0591,0.0238,0.0947,0.1337,0.1825,0.1683,0.1988,0.2307,0.2307,0.2519,0.1623,0.1858,0.1856,0.1854,0.1853,0.1852,-0.1706,-0.1799,-0.1948,-0.2074,-0.2113,-0.2223,-0.2287,-0.217,-0.2171,-0.1818,-0.1778,-0.1291,-0.0843,0.0014,0.0635,0.1289,0.155,0.1625,0.1687,0.1901,0.2084,0.2126,0.2255,0.1832,0.1835,0.1837,0.1838,0,-0.1615,-0.162,-0.177,-0.1815,-0.1845,-0.1943,-0.1947,-0.1983,-0.1793,-0.1696,-0.1624,-0.1168,-0.0663,-0.0151,0.0463,0.0765,0.1424,0.1384,0.1334,0.1411,0.1867,0.197,0.2371,0.2554,0.1657,0.1658,0.166,0,-0.1438,-0.1526,-0.1536,-0.1603,-0.1746,-0.1626,-0.1704,-0.1609,-0.1451,-0.1396,-0.1051,-0.0886,-0.0349,0.0001,0.0405,0.0883,0.0909,0.1232,0.1318,0.135,0.135,0.1671,0.1785,0.1328,0.1327,0.1325,0.1324,0,-0.1257,-0.1305,-0.1415,-0.1414,-0.1382,-0.1403,-0.1373,-0.1201,-0.1167,-0.0942,-0.0871,-0.0524,-0.0355,0.0028,0.047,0.0485,0.0948,0.1033,0.1247,0.1247,0.1378,0.1383,0.1799,0.1322,0.1322,0.1321,0.132,0,-0.1057,-0.1101,-0.1201,-0.1221,-0.1221,-0.1222,-0.1159,-0.1097,-0.087,-0.076,-0.0551,-0.0349,-0.0084,0.0056,0.0501,0.0413,0.0643,0.0852,0.0867,0.0902,0.0975,0.1174,0.129,0.1584,0.1023,0.102,0.1018,0,-0.0928,-0.1008,-0.0915,-0.0988,-0.1025,-0.0866,-0.0821,-0.0702,-0.057,-0.0466,-0.0203,-0.0094,0.0074,0.0133,0.0322,0.0571,0.0707,0.0587,0.0922,0.093,0.0914,0.0999,0.106,0.1241,0.0983,0.0986,0.0989,0,-0.0799,-0.0748,-0.0747,-0.078,-0.0651,-0.0646,-0.0568,-0.0479,-0.0462,-0.0261,-0.0204,0.002,0.0133,0.0207,0.0348,0.05,0.0652,0.0575,0.0585,0.0628,0.0945,0.0949,0.0973,0.0758,0.0762,0.0765,0.0961,0,-0.0641,-0.064,-0.0654,-0.0597,-0.055,-0.0553,-0.0409,-0.0351,-0.0254,-0.015,-0.0016,0.0167,0.0284,0.0359,0.0428,0.0548,0.0562,0.0635,0.0643,0.0678,0.0757,0.0779,0.0543,0.0544,0.0545,0.0546,0,0,-0.0535,-0.054,-0.0425,-0.0426,-0.0405,-0.0253,-0.0276,-0.0185,-0.0058,-0.0019,0.0042,0.0258,0.0353,0.0463,0.0489,0.0538,0.0606,0.0484,0.065,0.0661,0.0672,0.0749,0.0769,0.0548,0.0548,0.0548,0.0549,0,-0.0468,-0.0404,-0.0424,-0.0368,-0.0284,-0.0208,-0.0204,-0.0088,-0.0027,0.0042,0.0157,0.0266,0.0354,0.046,0.0516,0.0544,0.0604,0.0557,0.0493,0.0654,0.0663,0.0673,0.075,0.0766,0.0551,0.0551,0.0551,0,-0.037,-0.031,-0.0301,-0.0216,-0.0156,-0.0131,-0.0031,0.0006,0.0037,0.0156,0.021,0.031,0.0413,0.0478,0.0506,0.0508,0.0609,0.055,0.0548,0.0513,0.068,0.069,0.0699,0.058,0.058,0.0579,0,0,-0.0322,-0.0306,-0.0193,-0.0192,-0.0162,-0.0054,-0.0022,0.0041,0.0125,0.0159,0.0236,0.032,0.0402,0.0431,0.0501,0.0532,0.0599,0.0549,0.0548,0.0546,0.0511,0.0675,0.0685,0.0578,0.0578,0.0578,0,0,-0.0294,-0.0185,-0.0137,-0.013,-0.0057,0.0058,0.0059,0.0124,0.0196,0.0204,0.0299,0.032,0.0381,0.042,0.0394,0.0494,0.0508,0.0514,0.0449,0.0448,0.0447,0.0389,0.0436,0,0,0,0,0,-0.0175,-0.02,-0.0158,-0.0142,-0.003,0.0035,0.0053,0.014,0.0176,0.0179,0.0269,0.029,0.0446,0.0425,0.0435,0.0439,0.0558,0.0561,0.0565,0.0492,0.0491,0.049,0,0,0,0,0,0,-0.0167,-0.0149,-0.0157,-0.0048,-0.0021,0.0037,0.0113,0.0136,0.0178,0.0189,0.0278,0.0293,0.0354,0.0421,0.043,0.0433,0.0433,0.0559,0.0562,0.0565,0.0492,0.0491,0.049,0,0,0,0,0,-0.0161,-0.0147,0.0005,-0.0046,-0.0023,0.0091,0.0114,0.0134,0.0168,0.0261,0.028,0.0231,0.0352,0.0365,0.0427,0.0428,0.0427,0.043,0.0561,0.0564,0.0566,0.0491,0,0,0,0,0,0,-0.0157,-0.0124,0.0012,0.0023,-0.0036,0.009,0.0111,0.0131,0.0239,0.0258,0.0218,0.0225,0.035,0.0361,0.037,0.0424,0.0422,0.0425,0.0427,0.0563,0.0565,0.0567,0,0,0,0,0,0,-0.0131,-0.0115,0.0018,0.0025,0.0038,0.0089,0.0107,0.0136,0.0238,0.019,0.02,0.022,0.0326,0.0357,0.0365,0.0408,0.0418,0.0421,0.0424,0.0425,0.0565,0.0566,0,0,0,0,0,0,-0.0122,-0.0109,0.0022,0.0032,0.0044,0.0176,0.0115,0.0218,0.0264,0.0182,0.0269,0.0271,0.032,0.033,0.0361,0.04,0.0406,0.0418,0.042,0.0422,0.0423,0,0,0,0,0,0,0,-0.0115,-0.0231,-0.0054,0.0038,0.0048,0.0127,0.013,0.0133,0.0265,0.0266,0.0268,0.027,0.0399,0.0403,0.0407,0.0394,0,0,0.0418,0.0419,0,0,0,0,0,0,0,0,-0.0234,-0.0232,-0.0054,-0.0052,-0.0049,0.0128,0.013,0.0133,0.0265,0.0266,0.0268,0.0269,0.04,0.0403,0.0406,0,0,0,0,0,0,0,0,0,0,0,0,0,0,0,-0.0054,-0.0052,0,0.0128,0.013,0.0132,0.0265,0.0266,0.0267,0.0269,0.0401,0.0404,0.0406,0,0,0,0,0,0,0,0,0,0,0,0,0,0,0,0,0,0,0,0,0,0,0,0,0,0,0,0,0,0,0,0,0,0,0,0,0,0,0,0,0,0,0,0,0,0,0,0,0,0,0,0,0,0,0,0,0,0,0,0,0,0,0,0,0,0,0,0,0]}]],[[{"header":{"parameterUnit":"kt","parameterCategory":2,"dx":1,"dy":1,"la1":30.253999710083008,"la2":30.299108505249023,"lo1":-89.0895004272461,"lo2":-89.04439544677734,"nx":28,"ny":28,"refTime":"2022-10-16T21:00:00:Z","depth":"2","parameterNumber":2,"parameterNumberName":"U-component_of_CURRENTS"},"data":[-0.4668,-0.4538,-0.4525,-0.4039,-0.396,-0.3485,-0.3257,-0.2944,-0.2742,-0.2271,-0.2107,-0.2239,-0.2298,-0.1861,-0.1751,-0.1537,-0.1966,-0.1458,-0.2372,-0.2751,-0.2845,-0.3135,-0.2906,0,0,0,0,0,-0.4833,-0.484,-0.4848,-0.4758,-0.455,-0.4724,-0.4512,-0.4227,-0.3711,-0.3608,-0.3234,-0.275,-0.2392,-0.2413,-0.2123,-0.2085,-0.223,-0.2045,-0.2282,-0.2388,-0.2484,-0.2266,-0.1431,-0.1428,-0.1425,-0.1422,0,0,-0.5094,-0.512,-0.5196,-0.5208,-0.5224,-0.5069,-0.4924,-0.4876,-0.4649,-0.4321,-0.4296,-0.3819,-0.3788,-0.318,-0.2956,-0.2908,-0.3211,-0.3234,-0.3286,-0.3349,-0.3158,-0.3074,-0.2567,-0.2572,-0.2576,-0.2579,-0.2583,0,-0.5263,-0.5342,-0.5445,-0.5525,-0.5554,-0.56,-0.5618,-0.5588,-0.566,-0.5537,-0.5114,-0.4847,-0.4501,-0.3998,-0.3827,-0.3677,-0.4216,-0.3901,-0.4734,-0.4033,-0.3979,-0.3948,-0.4002,-0.3667,-0.3679,-0.3687,-0.3693,-0.3698,-0.5302,-0.5439,-0.5679,-0.5704,-0.579,-0.591,-0.5929,-0.6123,-0.6092,-0.6032,-0.5894,-0.57,-0.5299,-0.4968,-0.4751,-0.4556,-0.4778,-0.4181,-0.4153,-0.4889,-0.485,-0.4871,-0.4888,-0.3819,-0.3803,-0.3791,-0.378,0,-0.5281,-0.5484,-0.5684,-0.5921,-0.5966,-0.6037,-0.6169,-0.6198,-0.6318,-0.625,-0.6252,-0.616,-0.5853,-0.5813,-0.5646,-0.5511,-0.5304,-0.5116,-0.4804,-0.4693,-0.4961,-0.4962,-0.4759,-0.4744,-0.4731,-0.4721,-0.4712,0,-0.5321,-0.5457,-0.5716,-0.5829,-0.5954,-0.6106,-0.6197,-0.627,-0.6353,-0.6291,-0.6372,-0.6207,-0.6217,-0.6055,-0.5951,-0.5558,-0.5749,-0.5328,-0.5263,-0.5,-0.4944,-0.5658,-0.5654,-0.5697,-0.5697,-0.5697,-0.5697,0,-0.5215,-0.5527,-0.5723,-0.5808,-0.6055,-0.6091,-0.617,-0.6237,-0.6274,-0.6346,-0.6331,-0.629,-0.621,-0.6126,-0.5893,-0.5934,-0.5739,-0.5791,-0.5347,-0.5323,-0.4981,-0.492,-0.5696,-0.5696,-0.5696,-0.5696,-0.5696,0,-0.5237,-0.5428,-0.5695,-0.5894,-0.595,-0.6048,-0.6134,-0.6233,-0.6259,-0.6251,-0.6197,-0.6151,-0.61,-0.6,-0.5879,-0.5885,-0.5795,-0.574,-0.5738,-0.532,-0.5246,-0.4891,-0.4807,-0.5711,-0.5711,-0.5711,-0.5711,0,-0.5065,-0.5392,-0.5504,-0.5722,-0.5876,-0.5902,-0.5996,-0.6043,-0.605,-0.6091,-0.5986,-0.6015,-0.5892,-0.589,-0.5826,-0.579,-0.5749,-0.5752,-0.5657,-0.5656,-0.5247,-0.5242,-0.4894,-0.4839,-0.5711,-0.5711,-0.5711,0,-0.4935,-0.5266,-0.5283,-0.5389,-0.5568,-0.5663,-0.5764,-0.585,-0.5882,-0.5881,-0.591,-0.5898,-0.5817,-0.5818,-0.5779,-0.5743,-0.5749,-0.5694,-0.5689,-0.5659,-0.5701,-0.5296,-0.5258,-0.5696,-0.5696,-0.5695,-0.5711,0,-0.4949,-0.5086,-0.5172,-0.5374,-0.5462,-0.5584,-0.5666,-0.5708,-0.5679,-0.5691,-0.5703,-0.5688,-0.568,-0.5688,-0.5668,-0.5688,-0.5676,-0.5629,-0.5532,-0.5619,-0.5623,-0.5623,-0.5593,-0.5591,-0.559,-0.5588,0,0,-0.4723,-0.4933,-0.5005,-0.5167,-0.524,-0.5262,-0.5401,-0.5452,-0.5546,-0.5533,-0.5496,-0.5527,-0.5505,-0.5542,-0.5585,-0.5598,-0.5579,-0.5542,-0.5604,-0.5606,-0.5608,-0.5613,-0.5615,-0.5586,-0.5585,-0.5585,-0.5584,0,-0.4749,-0.4813,-0.4949,-0.5051,-0.5187,-0.5245,-0.5271,-0.5384,-0.5386,-0.547,-0.5418,-0.541,-0.5459,-0.5449,-0.545,-0.5575,-0.5484,-0.5589,-0.5629,-0.5593,-0.5598,-0.5601,-0.5607,-0.561,-0.5581,-0.5581,-0.5581,0,-0.4655,-0.4764,-0.4819,-0.5006,-0.5074,-0.5209,-0.5155,-0.5259,-0.5331,-0.5248,-0.531,-0.5291,-0.5288,-0.5348,-0.5362,-0.5319,-0.5392,-0.5383,-0.5393,-0.5381,-0.5339,-0.5346,-0.5352,-0.5256,-0.5254,-0.5253,0,0,-0.4657,-0.4768,-0.4909,-0.5014,-0.507,-0.5137,-0.5189,-0.521,-0.5258,-0.5263,-0.5244,-0.5233,-0.5254,-0.5245,-0.5274,-0.5324,-0.5286,-0.5342,-0.5357,-0.537,-0.5366,-0.5327,-0.5336,-0.5248,-0.5248,-0.5248,0,0,-0.4646,-0.4814,-0.4818,-0.4962,-0.5063,-0.5176,-0.5226,-0.5223,-0.525,-0.5214,-0.5163,-0.5155,-0.5194,-0.5179,-0.5125,-0.5218,-0.5159,-0.517,-0.5204,-0.5223,-0.5238,-0.5222,-0.5023,0,0,0,0,0,-0.4705,-0.4806,-0.4808,-0.4844,-0.5029,-0.5184,-0.5205,-0.522,-0.5151,-0.5201,-0.5176,-0.5098,-0.5158,-0.5109,-0.5108,-0.5127,-0.5188,-0.5199,-0.5209,-0.5267,-0.5287,-0.5304,0,0,0,0,0,0,-0.472,-0.4765,-0.4806,-0.4927,-0.4968,-0.518,-0.5104,-0.5111,-0.5146,-0.5137,-0.5112,-0.5099,-0.5072,-0.5104,-0.5105,-0.5123,-0.5023,-0.5192,-0.5201,-0.5209,-0.5274,-0.529,-0.5305,0,0,0,0,0,-0.4732,-0.4768,-0.5061,-0.4924,-0.496,-0.5016,-0.5099,-0.5104,-0.5118,-0.511,-0.5099,-0.5121,-0.5076,-0.507,-0.5104,-0.5124,-0.5022,-0.5022,-0.5198,-0.5205,-0.5212,-0.5282,0,0,0,0,0,0,-0.474,-0.4763,-0.5068,-0.5079,-0.4874,-0.5003,-0.5024,-0.5097,-0.5084,-0.5081,-0.5117,-0.511,-0.508,-0.5075,-0.5071,-0.5128,-0.5021,-0.5022,-0.5022,-0.5204,-0.5209,-0.5214,0,0,0,0,0,0,-0.4744,-0.4773,-0.5074,-0.501,-0.5014,-0.499,-0.501,-0.5031,-0.5078,-0.5087,-0.5085,-0.5113,-0.5036,-0.5079,-0.5075,-0.5112,-0.502,-0.5021,-0.5021,-0.5021,-0.5208,-0.5213,0,0,0,0,0,0,-0.4756,-0.4781,-0.5007,-0.501,-0.5013,-0.5135,-0.5001,-0.5154,-0.5135,-0.5083,-0.5123,-0.5117,-0.5038,-0.5036,-0.5079,-0.5118,-0.5114,-0.502,-0.5021,-0.5021,-0.5021,0,0,0,0,0,0,0,-0.4766,-0.4601,-0.5008,-0.5009,-0.5012,-0.5184,-0.5186,-0.5189,-0.5134,-0.5129,-0.5124,-0.5119,-0.5018,-0.5018,-0.5019,-0.5123,0,0,-0.502,-0.5021,0,0,0,0,0,0,0,0,-0.4591,-0.4598,-0.5008,-0.5011,-0.5013,-0.5184,-0.5186,-0.5188,-0.5133,-0.5129,-0.5125,-0.5121,-0.5018,-0.5018,-0.5019,0,0,0,0,0,0,0,0,0,0,0,0,0,0,0,-0.5008,-0.5011,0,-0.5185,-0.5186,-0.5188,-0.5133,-0.5129,-0.5126,-0.5123,-0.5018,-0.5018,-0.5019,0,0,0,0,0,0,0,0,0,0,0,0,0,0,0,0,0,0,0,0,0,0,0,0,0,0,0,0,0,0,0,0,0,0,0,0,0,0,0,0,0,0,0,0,0,0,0,0,0,0,0,0,0,0,0,0,0,0,0,0,0,0,0,0,0,0,0,0,0]}],[{"header":{"parameterUnit":"kt","parameterCategory":2,"dx":1,"dy":1,"la1":30.253999710083008,"la2":30.299108505249023,"lo1":-89.0895004272461,"lo2":-89.04439544677734,"nx":28,"ny":28,"refTime":"2022-10-16T21:00:00:Z","depth":"2","parameterNumber":3,"parameterNumberName":"V-component_of_CURRENTS"},"data":[-0.2322,-0.2316,-0.2249,-0.2069,-0.1978,-0.1812,-0.1716,-0.1621,-0.1382,-0.1173,-0.0896,-0.0432,0.0112,0.0488,0.0858,0.1114,0.1193,0.1109,0.1073,0.1168,0.1178,0.149,0.1286,0,0,0,0,0,-0.2269,-0.2248,-0.221,-0.2087,-0.1966,-0.1888,-0.1683,-0.1572,-0.1459,-0.1125,-0.0903,-0.0413,0.005,0.05,0.101,0.1293,0.136,0.1324,0.1429,0.1442,0.1456,0.1318,0.1316,0.1316,0.1317,0.1317,0,0,-0.2152,-0.2178,-0.2097,-0.2036,-0.1952,-0.1794,-0.1726,-0.1534,-0.1381,-0.1033,-0.0803,-0.0484,0.0019,0.0573,0.0902,0.1235,0.1245,0.1426,0.1437,0.1449,0.1306,0.1167,0.1302,0.1302,0.1302,0.1302,0.1302,0,-0.2004,-0.1987,-0.1936,-0.1889,-0.183,-0.1709,-0.156,-0.1474,-0.1118,-0.097,-0.0673,-0.0493,0.0052,0.0462,0.09,0.1113,0.1461,0.1488,0.1578,0.1505,0.1374,0.1408,0.1393,0.1572,0.1574,0.1575,0.1576,0.1577,-0.1844,-0.1842,-0.1727,-0.1701,-0.1627,-0.1577,-0.1486,-0.1248,-0.1086,-0.0679,-0.0542,-0.0198,0.0045,0.0598,0.0983,0.1337,0.139,0.1531,0.1486,0.1424,0.1462,0.1441,0.1421,0.1596,0.1593,0.1591,0.159,0,-0.1767,-0.1633,-0.1584,-0.1407,-0.1366,-0.1376,-0.116,-0.1067,-0.0859,-0.0631,-0.0554,-0.0126,0.0204,0.0568,0.1042,0.1222,0.1517,0.1569,0.1458,0.1493,0.1454,0.1429,0.1648,0.1644,0.164,0.1638,0.1636,0,-0.1567,-0.1534,-0.1346,-0.1311,-0.1279,-0.1067,-0.1,-0.0852,-0.0622,-0.046,-0.0218,-0.0028,0.0392,0.0684,0.0917,0.1205,0.1338,0.1373,0.1432,0.1406,0.1386,0.1504,0.1487,0.1634,0.1632,0.163,0.1628,0,-0.1486,-0.1273,-0.1227,-0.115,-0.0891,-0.0856,-0.0755,-0.0537,-0.0426,-0.0208,-0.0092,0.0175,0.0344,0.0604,0.0904,0.089,0.1325,0.1373,0.1377,0.1367,0.1448,0.1434,0.1626,0.1625,0.1625,0.1624,0.1623,0,-0.1266,-0.1166,-0.1076,-0.0867,-0.0815,-0.0736,-0.0565,-0.0445,-0.0211,-0.0104,0.0051,0.0203,0.0422,0.0456,0.0843,0.0734,0.0901,0.1075,0.1091,0.0977,0.1001,0.1178,0.1264,0.1259,0.1255,0.1251,0.1248,0,-0.1226,-0.109,-0.0913,-0.0801,-0.0715,-0.0513,-0.0407,-0.0246,-0.0111,0.0023,0.0196,0.0318,0.0369,0.0414,0.0557,0.0785,0.0902,0.075,0.1115,0.1126,0.0943,0.1008,0.0989,0.1212,0.1203,0.1208,0.1211,0,-0.1175,-0.0897,-0.0885,-0.0807,-0.0558,-0.0464,-0.0344,-0.0165,-0.0108,0.0054,0.0152,0.032,0.0375,0.0453,0.0548,0.0684,0.0831,0.0721,0.0732,0.0801,0.1143,0.0967,0.0982,0.0896,0.0901,0.0904,0.1175,0,-0.0967,-0.0872,-0.0837,-0.0637,-0.0527,-0.0438,-0.0228,-0.0152,-0.0074,0.0053,0.0178,0.0332,0.0457,0.0502,0.0555,0.0681,0.0697,0.0746,0.0758,0.0801,0.0913,0.0941,0.0636,0.0638,0.0639,0.064,0,0,-0.0965,-0.0839,-0.0678,-0.0572,-0.048,-0.0302,-0.0224,-0.0107,0.0089,0.0136,0.0147,0.0376,0.0452,0.0588,0.0599,0.0648,0.0723,0.0597,0.0768,0.0782,0.0795,0.0903,0.0928,0.0642,0.0643,0.0643,0.0643,0,-0.0854,-0.0757,-0.0709,-0.0572,-0.0382,-0.0246,-0.0231,-0.0018,0.004,0.0152,0.0238,0.0323,0.0441,0.0549,0.0611,0.0655,0.0712,0.0652,0.0612,0.0773,0.0785,0.0796,0.0903,0.0925,0.0647,0.0646,0.0646,0,-0.0776,-0.0631,-0.0602,-0.0383,-0.0264,-0.0143,-0.0054,0.0045,0.0123,0.0218,0.0292,0.037,0.0485,0.0564,0.059,0.0594,0.0723,0.0647,0.0643,0.0639,0.0808,0.082,0.0831,0.0686,0.0686,0.0685,0,0,-0.0698,-0.063,-0.039,-0.0341,-0.0267,-0.0087,-0.0018,0.0067,0.0192,0.0223,0.0301,0.038,0.0468,0.0496,0.0581,0.0636,0.0723,0.0645,0.0643,0.0641,0.0635,0.0802,0.0814,0.0683,0.0683,0.0683,0,0,-0.0657,-0.0418,-0.0362,-0.0282,-0.0125,0.0103,0.0122,0.0198,0.0278,0.025,0.0349,0.0369,0.0423,0.0477,0.0445,0.0559,0.0577,0.0585,0.0498,0.0497,0.0496,0.0466,0.0473,0,0,0,0,0,-0.0449,-0.0437,-0.0388,-0.0347,-0.0098,0.0087,0.012,0.0227,0.0219,0.0237,0.0312,0.0319,0.0499,0.0472,0.049,0.0479,0.0658,0.0662,0.0666,0.0571,0.0569,0.0568,0,0,0,0,0,0,-0.0431,-0.0382,-0.0386,-0.016,-0.0101,0.0086,0.0132,0.0163,0.0219,0.0223,0.0313,0.0324,0.0394,0.0465,0.048,0.0469,0.0468,0.0659,0.0663,0.0667,0.057,0.0569,0.0568,0,0,0,0,0,-0.0416,-0.0376,-0.0017,-0.0159,-0.0109,0.0057,0.0129,0.0155,0.0181,0.0312,0.0325,0.025,0.0394,0.0408,0.0474,0.0461,0.0458,0.0463,0.0662,0.0665,0.0668,0.057,0,0,0,0,0,0,-0.0405,-0.0356,-0.0004,0.0017,-0.0187,0.0047,0.0083,0.0147,0.0264,0.0284,0.0255,0.0257,0.0395,0.0406,0.0417,0.0455,0.0449,0.0455,0.0458,0.0664,0.0667,0.0669,0,0,0,0,0,0,-0.0375,-0.0339,0.0007,-0.0035,-0.0018,0.0037,0.0069,0.0133,0.0259,0.0197,0.0206,0.0253,0.034,0.0405,0.0413,0.0514,0.0443,0.0448,0.0452,0.0454,0.0666,0.0668,0,0,0,0,0,0,-0.0357,-0.0326,-0.0041,-0.0028,-0.0013,0.0226,0.0091,0.0308,0.0316,0.0186,0.031,0.0308,0.0335,0.0348,0.0411,0.0508,0.0513,0.0443,0.0447,0.0449,0.0451,0,0,0,0,0,0,0,-0.0343,-0.0585,-0.0121,-0.0021,-0.0009,0.0214,0.0219,0.0224,0.0315,0.0313,0.0311,0.0309,0.0412,0.0418,0.0424,0.0503,0,0,0.0442,0.0445,0,0,0,0,0,0,0,0,-0.0595,-0.0588,-0.012,-0.0115,-0.0111,0.0215,0.0219,0.0223,0.0315,0.0313,0.0311,0.031,0.0413,0.0418,0.0423,0,0,0,0,0,0,0,0,0,0,0,0,0,0,0,-0.012,-0.0116,0,0.0215,0.0219,0.0222,0.0315,0.0313,0.0312,0.031,0.0415,0.0419,0.0423,0,0,0,0,0,0,0,0,0,0,0,0,0,0,0,0,0,0,0,0,0,0,0,0,0,0,0,0,0,0,0,0,0,0,0,0,0,0,0,0,0,0,0,0,0,0,0,0,0,0,0,0,0,0,0,0,0,0,0,0,0,0,0,0,0,0,0,0,0]}]],[[{"header":{"parameterUnit":"kt","parameterCategory":2,"dx":1,"dy":1,"la1":30.253999710083008,"la2":30.299108505249023,"lo1":-89.0895004272461,"lo2":-89.04439544677734,"nx":28,"ny":28,"refTime":"2022-10-16T21:00:00:Z","depth":"4","parameterNumber":2,"parameterNumberName":"U-component_of_CURRENTS"},"data":[-0.1131,-0.1105,-0.108,-0.0977,-0.0946,-0.0947,-0.1035,-0.1191,-0.1243,-0.1488,-0.1615,-0.1785,-0.1994,-0.2112,-0.2214,-0.2244,-0.2289,-0.2524,-0.2518,-0.2699,-0.2721,-0.2742,-0.2857,0,0,0,0,0,-0.1215,-0.1152,-0.1147,-0.1169,-0.1183,-0.1209,-0.1316,-0.1419,-0.1617,-0.1647,-0.1818,-0.1947,-0.2137,-0.2293,-0.2269,-0.2421,-0.2572,-0.2377,-0.2516,-0.2713,-0.2738,-0.2841,0,0,0,0,0,0,-0.1318,-0.1305,-0.1329,-0.1369,-0.1398,-0.1395,-0.1504,-0.1576,-0.1641,-0.1912,-0.1962,-0.2241,-0.2455,-0.2527,-0.2564,-0.2582,-0.2605,-0.2553,-0.2585,-0.261,-0.2662,-0.2565,-0.2205,0,0,0,0,0,-0.1391,-0.144,-0.1514,-0.1532,-0.1609,-0.1665,-0.1774,-0.1771,-0.198,-0.2104,-0.2247,-0.2429,-0.2484,-0.2661,-0.2676,-0.2736,-0.2937,-0.2852,-0.2868,-0.3038,-0.2988,-0.295,-0.2972,-0.2833,-0.2837,-0.2839,-0.284,0,-0.148,-0.15,-0.1679,-0.1708,-0.1838,-0.1979,-0.2002,-0.2221,-0.223,-0.2454,-0.245,-0.2662,-0.2876,-0.2748,-0.2959,-0.2977,-0.303,-0.2917,-0.3099,-0.303,-0.2983,-0.2998,-0.3012,-0.286,-0.2858,-0.2857,-0.2855,0,-0.1511,-0.1623,-0.1741,-0.195,-0.2015,-0.2109,-0.2304,-0.2321,-0.2495,-0.2571,-0.2686,-0.2986,-0.3082,-0.3225,-0.3272,-0.3271,-0.3213,-0.3175,-0.3363,-0.3314,-0.3045,-0.3051,-0.2893,-0.2886,-0.288,-0.2874,-0.287,0,-0.1613,-0.1716,-0.1915,-0.1975,-0.2066,-0.228,-0.2371,-0.2519,-0.2668,-0.2736,-0.3089,-0.3161,-0.3432,-0.3478,-0.3562,-0.3457,-0.3535,-0.3404,-0.3339,-0.3604,-0.3607,-0.3549,-0.3545,-0.3602,-0.3604,-0.3606,-0.3608,0,-0.1665,-0.188,-0.1952,-0.2035,-0.2244,-0.2354,-0.2475,-0.2658,-0.2705,-0.2988,-0.3049,-0.3349,-0.3437,-0.354,-0.363,-0.3688,-0.3554,-0.3582,-0.341,-0.3391,-0.3559,-0.3552,-0.361,-0.361,-0.3611,-0.3611,-0.3612,0,-0.1806,-0.1881,-0.1998,-0.2207,-0.2252,-0.237,-0.2519,-0.2618,-0.284,-0.2947,-0.3213,-0.3407,-0.3585,-0.3642,-0.3707,-0.376,-0.3776,-0.3708,-0.3697,-0.3503,-0.3415,-0.3305,-0.3496,-0.3496,-0.3497,-0.3498,-0.3499,0,-0.1814,-0.193,-0.2047,-0.2205,-0.2278,-0.2435,-0.2509,-0.2684,-0.2809,-0.2961,-0.3151,-0.3352,-0.3515,-0.3637,-0.3691,-0.3712,-0.3704,-0.376,-0.3595,-0.3586,-0.3323,-0.3458,-0.3768,-0.351,-0.3508,-0.3507,-0.3507,0,-0.1816,-0.2011,-0.2038,-0.2123,-0.2291,-0.2367,-0.2488,-0.264,-0.2709,-0.2935,-0.3059,-0.3341,-0.3493,-0.357,-0.368,-0.3655,-0.3698,-0.3687,-0.3684,-0.3463,-0.365,-0.3485,-0.3461,-0.3761,-0.3763,-0.3764,-0.3514,0,-0.1904,-0.2006,-0.2041,-0.2158,-0.225,-0.2335,-0.2453,-0.2565,-0.2667,-0.2785,-0.3029,-0.317,-0.3384,-0.3428,-0.3512,-0.3651,-0.3604,-0.3615,-0.3401,-0.3594,-0.3465,-0.3459,-0.3488,-0.3485,-0.3484,-0.3482,0,0,-0.1879,-0.1948,-0.2026,-0.2104,-0.2179,-0.2276,-0.2353,-0.243,-0.2623,-0.2714,-0.2738,-0.3088,-0.3138,-0.3304,-0.3447,-0.3487,-0.3461,-0.335,-0.3556,-0.3565,-0.3573,-0.3455,-0.3453,-0.3479,-0.3478,-0.3477,-0.3477,0,-0.1871,-0.195,-0.1994,-0.2084,-0.2205,-0.2256,-0.2299,-0.2435,-0.2496,-0.2678,-0.2778,-0.2951,-0.3086,-0.3151,-0.3197,-0.3455,-0.3271,-0.3517,-0.3538,-0.354,-0.3551,-0.3561,-0.3448,-0.3447,-0.3472,-0.3472,-0.3472,0,-0.1862,-0.192,-0.1958,-0.2074,-0.2141,-0.2221,-0.2249,-0.235,-0.2422,-0.2469,-0.2616,-0.2755,-0.2836,-0.2982,-0.3045,-0.2944,-0.3066,-0.307,-0.3087,-0.3053,-0.3045,-0.3063,-0.3079,-0.2838,-0.2835,-0.2833,0,0,-0.1854,-0.1908,-0.2013,-0.2078,-0.2122,-0.2216,-0.2274,-0.2329,-0.2439,-0.2493,-0.2543,-0.2639,-0.2758,-0.2772,-0.2871,-0.295,-0.2869,-0.2985,-0.3015,-0.3039,-0.3018,-0.3018,-0.3039,-0.2822,-0.2822,-0.2821,0,0,-0.1842,-0.1941,-0.1983,-0.2058,-0.2148,-0.223,-0.2281,-0.2336,-0.2463,-0.2488,-0.2483,-0.2494,-0.2667,-0.2641,-0.2513,-0.2731,-0.2626,-0.2651,-0.2666,-0.2703,-0.2733,-0.268,-0.2316,0,0,0,0,0,-0.1884,-0.1927,-0.1964,-0.199,-0.2122,-0.2216,-0.2236,-0.2301,-0.2325,-0.2369,-0.249,-0.2349,-0.2619,-0.2503,-0.2499,-0.2518,-0.2681,-0.2706,-0.2729,-0.2779,-0.2819,-0.2853,0,0,0,0,0,0,-0.1894,-0.1921,-0.1964,-0.2043,-0.2075,-0.2213,-0.2209,-0.2227,-0.2321,-0.2327,-0.235,-0.2347,-0.2317,-0.2493,-0.2492,-0.2512,-0.2316,-0.269,-0.2712,-0.2731,-0.2793,-0.2826,-0.2854,0,0,0,0,0,-0.1903,-0.1925,-0.2119,-0.2043,-0.2071,-0.2171,-0.2207,-0.2223,-0.2302,-0.2291,-0.2295,-0.2355,-0.2317,-0.2317,-0.2491,-0.2515,-0.2315,-0.2316,-0.2704,-0.2721,-0.2736,-0.2809,0,0,0,0,0,0,-0.1909,-0.1932,-0.2126,-0.2138,-0.2035,-0.2166,-0.2186,-0.2219,-0.226,-0.2269,-0.2286,-0.2288,-0.2318,-0.2317,-0.2317,-0.2523,-0.2315,-0.2315,-0.2316,-0.2717,-0.273,-0.2742,0,0,0,0,0,0,-0.1922,-0.1941,-0.2132,-0.2118,-0.2128,-0.2161,-0.2179,-0.2182,-0.2255,-0.225,-0.2256,-0.2286,-0.2287,-0.2318,-0.2318,-0.2323,-0.2315,-0.2315,-0.2315,-0.2315,-0.2728,-0.2738,0,0,0,0,0,0,-0.1932,-0.1948,-0.2114,-0.2122,-0.2132,-0.2266,-0.216,-0.2271,-0.2319,-0.2243,-0.2318,-0.2318,-0.2284,-0.2287,-0.2318,-0.2323,-0.2323,-0.2315,-0.2315,-0.2315,-0.2315,0,0,0,0,0,0,0,-0.194,-0.1807,-0.2062,-0.2127,-0.2135,-0.2251,-0.2253,-0.2256,-0.2319,-0.2318,-0.2318,-0.2318,-0.2314,-0.2314,-0.2314,-0.2323,0,0,-0.2315,-0.2315,0,0,0,0,0,0,0,0,-0.1802,-0.1806,-0.2063,-0.2066,-0.2069,-0.2251,-0.2253,-0.2255,-0.2319,-0.2318,-0.2318,-0.2318,-0.2314,-0.2314,-0.2314,0,0,0,0,0,0,0,0,0,0,0,0,0,0,0,-0.2063,-0.2066,0,-0.2251,-0.2253,-0.2255,-0.2319,-0.2318,-0.2318,-0.2318,-0.2314,-0.2314,-0.2314,0,0,0,0,0,0,0,0,0,0,0,0,0,0,0,0,0,0,0,0,0,0,0,0,0,0,0,0,0,0,0,0,0,0,0,0,0,0,0,0,0,0,0,0,0,0,0,0,0,0,0,0,0,0,0,0,0,0,0,0,0,0,0,0,0,0,0,0,0]}],[{"header":{"parameterUnit":"kt","parameterCategory":2,"dx":1,"dy":1,"la1":30.253999710083008,"la2":30.299108505249023,"lo1":-89.0895004272461,"lo2":-89.04439544677734,"nx":28,"ny":28,"refTime":"2022-10-16T21:00:00:Z","depth":"4","parameterNumber":3,"parameterNumberName":"V-component_of_CURRENTS"},"data":[-0.1053,-0.1162,-0.1222,-0.1312,-0.1384,-0.1462,-0.1488,-0.15,-0.1388,-0.1352,-0.1064,-0.0991,-0.0499,-0.0706,-0.005,0.0025,-0.009,0.052,0.0525,0.0277,0.0253,0.0231,0.0146,0,0,0,0,0,-0.1053,-0.1119,-0.1238,-0.1371,-0.1453,-0.1509,-0.1563,-0.1591,-0.159,-0.1399,-0.1394,-0.1026,-0.0563,-0.0372,-0.0054,-0.0053,0.0155,0.0313,0.0091,0.0262,0.0235,0.0161,0,0,0,0,0,0,-0.1053,-0.1125,-0.1249,-0.1372,-0.1474,-0.1518,-0.1582,-0.1533,-0.154,-0.1479,-0.1362,-0.1037,-0.0868,-0.0428,-0.0118,0.016,0.014,0.01,0.0083,0.006,-0.0017,0.0011,0.0269,0,0,0,0,0,-0.1031,-0.11,-0.1214,-0.1357,-0.146,-0.1555,-0.1645,-0.1649,-0.1682,-0.1699,-0.1467,-0.1214,-0.084,-0.0534,-0.0163,0.007,-0.0073,0.0136,0.0118,-0.0064,-0.0037,0.0029,0.0009,0.0132,0.0129,0.0127,0.0125,0,-0.0978,-0.1059,-0.1255,-0.1332,-0.142,-0.1562,-0.1615,-0.1705,-0.1717,-0.1666,-0.1616,-0.1352,-0.1175,-0.0654,-0.0462,-0.0094,-0.0024,0.0067,-0.0127,-0.0082,-0.0006,-0.0021,-0.0033,0.0104,0.0105,0.0107,0.0109,0,-0.0942,-0.1027,-0.118,-0.1338,-0.1396,-0.1506,-0.1629,-0.167,-0.1715,-0.1704,-0.1689,-0.1523,-0.124,-0.1011,-0.0746,-0.0599,-0.0364,-0.0193,-0.0415,-0.0336,-0.007,-0.0073,0.0068,0.0076,0.0082,0.0088,0.0093,0,-0.0912,-0.1012,-0.1146,-0.1222,-0.1364,-0.1435,-0.1555,-0.1617,-0.1644,-0.1646,-0.1584,-0.1498,-0.1363,-0.1147,-0.0959,-0.0627,-0.0717,-0.0453,-0.0361,-0.0632,-0.0632,-0.0585,-0.058,-0.0646,-0.0647,-0.0649,-0.065,0,-0.0836,-0.0981,-0.1107,-0.1153,-0.1282,-0.136,-0.1433,-0.1484,-0.1528,-0.1546,-0.1511,-0.1448,-0.1367,-0.1233,-0.0946,-0.097,-0.0728,-0.0758,-0.0428,-0.0408,-0.0593,-0.0585,-0.0652,-0.0653,-0.0653,-0.0654,-0.0654,0,-0.0796,-0.0869,-0.1021,-0.1137,-0.117,-0.126,-0.1354,-0.1431,-0.1446,-0.1439,-0.1403,-0.13,-0.127,-0.1181,-0.1024,-0.102,-0.0838,-0.075,-0.0739,-0.054,-0.0401,-0.0463,-0.0514,-0.0515,-0.0515,-0.0516,-0.0516,0,-0.0702,-0.0834,-0.0861,-0.1001,-0.1074,-0.1079,-0.1169,-0.1209,-0.1222,-0.1244,-0.1206,-0.1193,-0.1092,-0.1028,-0.101,-0.0861,-0.0815,-0.0868,-0.0597,-0.059,-0.0429,-0.044,-0.0747,-0.0522,-0.0522,-0.0521,-0.0521,0,-0.0614,-0.0709,-0.0717,-0.0772,-0.0822,-0.087,-0.0965,-0.1023,-0.1061,-0.1069,-0.1102,-0.1093,-0.0986,-0.0965,-0.0853,-0.0857,-0.0812,-0.0704,-0.0699,-0.0619,-0.0652,-0.0465,-0.0441,-0.0739,-0.074,-0.0742,-0.0525,0,-0.0565,-0.0609,-0.0647,-0.0705,-0.0738,-0.0789,-0.0817,-0.0846,-0.0835,-0.0831,-0.0842,-0.0787,-0.0742,-0.0742,-0.0656,-0.0686,-0.0562,-0.0536,-0.0513,-0.0572,-0.0457,-0.0454,-0.0457,-0.0455,-0.0454,-0.0452,0,0,-0.0453,-0.051,-0.0488,-0.0543,-0.057,-0.052,-0.059,-0.0616,-0.0603,-0.0608,-0.0571,-0.053,-0.0507,-0.0526,-0.0527,-0.0499,-0.0399,-0.0504,-0.0533,-0.0543,-0.0551,-0.0448,-0.0447,-0.0449,-0.0448,-0.0448,-0.0447,0,-0.043,-0.0419,-0.0468,-0.0485,-0.0487,-0.0488,-0.0494,-0.0491,-0.0498,-0.0528,-0.0433,-0.0411,-0.0408,-0.0402,-0.0392,-0.0459,-0.0376,-0.0424,-0.0542,-0.0518,-0.053,-0.054,-0.0441,-0.0441,-0.0443,-0.0443,-0.0443,0,-0.0359,-0.0357,-0.0373,-0.0389,-0.0386,-0.0439,-0.0354,-0.0373,-0.0424,-0.03,-0.0355,-0.0281,-0.0242,-0.0274,-0.0284,-0.027,-0.0337,-0.0339,-0.0347,-0.039,-0.0364,-0.0377,-0.0389,-0.024,-0.024,-0.024,0,0,-0.0335,-0.0361,-0.0354,-0.0381,-0.0389,-0.0359,-0.0359,-0.0336,-0.031,-0.0295,-0.0277,-0.0248,-0.0232,-0.0237,-0.0229,-0.0271,-0.0229,-0.0319,-0.0328,-0.0337,-0.0383,-0.036,-0.0373,-0.0239,-0.0239,-0.0239,0,0,-0.0323,-0.0324,-0.0297,-0.0333,-0.0335,-0.0322,-0.0338,-0.0302,-0.0274,-0.0254,-0.0209,-0.0201,-0.0213,-0.0199,-0.0186,-0.0257,-0.0211,-0.0213,-0.0291,-0.0303,-0.0312,-0.037,-0.0178,0,0,0,0,0,-0.0289,-0.0329,-0.0304,-0.0305,-0.0308,-0.0336,-0.0335,-0.0296,-0.0248,-0.0269,-0.0208,-0.0209,-0.0179,-0.0167,-0.017,-0.0242,-0.0228,-0.023,-0.0232,-0.0339,-0.0351,-0.0362,0,0,0,0,0,0,-0.029,-0.0294,-0.0303,-0.0293,-0.0293,-0.0334,-0.0268,-0.0259,-0.0246,-0.0238,-0.0215,-0.0209,-0.0189,-0.0166,-0.0169,-0.0238,-0.0177,-0.0229,-0.023,-0.0232,-0.0343,-0.0353,-0.0362,0,0,0,0,0,-0.029,-0.0293,-0.0308,-0.0292,-0.0292,-0.0251,-0.0266,-0.0258,-0.0245,-0.0222,-0.0214,-0.0213,-0.0191,-0.019,-0.0168,-0.0238,-0.0175,-0.0176,-0.023,-0.0231,-0.0232,-0.0348,0,0,0,0,0,0,-0.029,-0.0288,-0.0307,-0.0304,-0.0269,-0.0248,-0.0244,-0.0257,-0.0229,-0.0222,-0.022,-0.0214,-0.0193,-0.0192,-0.0192,-0.0239,-0.0173,-0.0174,-0.0175,-0.0231,-0.0232,-0.0233,0,0,0,0,0,0,-0.0285,-0.0287,-0.0306,-0.0279,-0.0273,-0.0245,-0.0242,-0.0261,-0.023,-0.023,-0.0224,-0.0218,-0.0191,-0.0194,-0.0193,-0.0225,-0.0172,-0.0173,-0.0174,-0.0174,-0.0231,-0.0232,0,0,0,0,0,0,-0.0285,-0.0286,-0.0279,-0.0275,-0.027,-0.0245,-0.0261,-0.0265,-0.0208,-0.0232,-0.0201,-0.0198,-0.0194,-0.0192,-0.0195,-0.0227,-0.0226,-0.0172,-0.0173,-0.0173,-0.0174,0,0,0,0,0,0,0,-0.0284,-0.029,-0.0317,-0.0272,-0.0267,-0.0284,-0.0284,-0.0283,-0.0207,-0.0204,-0.0202,-0.0199,-0.0166,-0.0167,-0.0169,-0.0229,0,0,-0.0172,-0.0172,0,0,0,0,0,0,0,0,-0.0288,-0.0289,-0.0317,-0.0316,-0.0315,-0.0284,-0.0284,-0.0284,-0.0207,-0.0205,-0.0202,-0.02,-0.0167,-0.0168,-0.0168,0,0,0,0,0,0,0,0,0,0,0,0,0,0,0,-0.0316,-0.0316,0,-0.0284,-0.0284,-0.0284,-0.0206,-0.0205,-0.0203,-0.0201,-0.0167,-0.0168,-0.0168,0,0,0,0,0,0,0,0,0,0,0,0,0,0,0,0,0,0,0,0,0,0,0,0,0,0,0,0,0,0,0,0,0,0,0,0,0,0,0,0,0,0,0,0,0,0,0,0,0,0,0,0,0,0,0,0,0,0,0,0,0,0,0,0,0,0,0,0,0]}]]]